TimePST,TemperatureF,Dew PointF,Humidity,Sea Level PressureIn,VisibilityMPH,Wind Direction,Wind SpeedMPH,Gust SpeedMPH,PrecipitationIn,Events,Conditions,WindDirDegrees,DateUTC
12:53 AM,55.0,24.1,30,30.17,10.0,NNW,10.4,18.4,N/A,,Clear,330,2012-11-11 08:53:00
1:53 AM,53.1,25.0,34,30.18,10.0,Variable,4.6,-,N/A,,Clear,0,2012-11-11 09:53:00
2:53 AM,52.0,24.1,34,30.18,10.0,Calm,Calm,-,N/A,,Clear,0,2012-11-11 10:53:00
3:53 AM,48.9,25.0,39,30.19,10.0,Calm,Calm,-,N/A,,Clear,0,2012-11-11 11:53:00
4:53 AM,48.0,25.0,41,30.21,10.0,ENE,3.5,-,N/A,,Clear,70,2012-11-11 12:53:00
5:53 AM,46.9,23.0,39,30.22,10.0,Calm,Calm,-,N/A,,Clear,0,2012-11-11 13:53:00
6:53 AM,46.9,24.1,41,30.25,10.0,North,4.6,-,N/A,,Clear,360,2012-11-11 14:53:00
7:53 AM,52.0,23.0,32,30.27,10.0,Calm,Calm,-,N/A,,Clear,0,2012-11-11 15:53:00
8:53 AM,57.0,19.9,24,30.28,10.0,NE,3.5,-,N/A,,Clear,50,2012-11-11 16:53:00
10:53 AM,62.1,16.0,17,30.28,10.0,Variable,4.6,-,N/A,,Clear,0,2012-11-11 18:53:00
11:53 AM,64.9,16.0,15,30.27,10.0,Calm,Calm,-,N/A,,Clear,0,2012-11-11 19:53:00
12:53 PM,64.9,12.9,13,30.25,10.0,Variable,3.5,-,N/A,,Clear,0,2012-11-11 20:53:00
1:53 PM,64.9,21.9,19,30.23,10.0,WSW,8.1,-,N/A,,Clear,250,2012-11-11 21:53:00
2:53 PM,66.9,21.0,17,30.22,10.0,West,6.9,-,N/A,,Clear,270,2012-11-11 22:53:00
3:53 PM,64.0,30.9,29,30.24,10.0,WSW,12.7,-,N/A,,Clear,250,2012-11-11 23:53:00
4:53 PM,59.0,41.0,51,30.25,10.0,West,8.1,-,N/A,,Clear,280,2012-11-12 00:53:00
5:53 PM,59.0,33.1,38,30.26,10.0,West,5.8,-,N/A,,Clear,280,2012-11-12 01:53:00
6:53 PM,57.9,30.9,36,30.27,10.0,WNW,3.5,-,N/A,,Clear,290,2012-11-12 02:53:00
7:53 PM,57.0,36.0,45,30.28,10.0,Calm,Calm,-,N/A,,Clear,0,2012-11-12 03:53:00
8:53 PM,55.9,33.1,42,30.30,10.0,Calm,Calm,-,N/A,,Clear,0,2012-11-12 04:53:00
9:53 PM,54.0,34.0,47,30.29,10.0,Calm,Calm,-,N/A,,Clear,0,2012-11-12 05:53:00
10:53 PM,53.1,32.0,45,30.28,10.0,Calm,Calm,-,N/A,,Clear,0,2012-11-12 06:53:00
11:53 PM,51.1,30.0,44,30.27,10.0,Calm,Calm,-,N/A,,Clear,0,2012-11-12 07:53:00